Location: Bessat
(45.8735°N, 1.9924°E)
Time: 08:27:41
(UTC+00:00)

Cosmos 1486 Rocket - Pass Details

Date: 11 May 2021
Orbit: 759 x 783 km, 74.1° (Epoch: 20 June)

Event Time Altitude Azimuth Distance (km) Brightness Sun altitude
Rises 19:50:41 0° 202° (SSW) 3,253 7.1 -6.5°
Reaches altitude 10° 19:53:03 10° 203° (SSW) 2,331 6.4 -6.9°
Maximum altitude 19:58:22 82° 291° (WNW) 797 4.2 -7.6°
Drops below altitude 10° 20:03:44 10° 20° (NNE) 2,349 6.8 -8.4°
Sets 20:06:08 0° 21° (NNE) 3,280 7.5 -8.7°
